This demonstration page uses our WeatherBlox Daily Observations layout. Learn more.

Left ArrowRight Arrow

36.19886, -115.1175

Hourly Observations for December 4, 2021

Temp ( °F °C ) Dew Point ( °F °C ) Humidity (%) Winds ( mph kmh ) Pressure ( in mb ) Visibility ( mi km ) Precip ( " mm )
12:53 am 00:53 Clear 53 11.7 25 -3.9 34 34 WNW 7 11 30.14 1021 10 16 N/A
1:53 am 01:53 Clear 51 10.6 27 -2.8 39 39 WNW 7 11 30.14 1021 10 16 N/A
2:53 am 02:53 Clear 53 11.7 25 -3.9 34 34 W 5 7 30.14 1021 10 16 N/A
3:53 am 03:53 Clear 48 8.9 25 -3.9 41 41 N N/A 30.15 1021 10 16 N/A
4:53 am 04:53 Clear 46 7.8 26 -3.3 46 46 NW 5 7 30.16 1022 10 16 N/A
5:53 am 05:53 Clear 47 8.3 26 -3.3 44 44 WNW 7 11 30.19 1022 10 16 N/A
6:53 am 06:53 Sunny 46 7.8 26 -3.3 46 46 W 3 6 30.21 1023 10 16 N/A
7:53 am 07:53 Sunny 50 10 27 -2.8 41 41 WNW 5 7 30.22 1023 10 16 N/A
8:53 am 08:53 Sunny 57 13.9 26 -3.3 30 30 N N/A 30.22 1024 10 16 N/A
9:53 am 09:53 Sunny 61 16.1 25 -3.9 25 25 SE 5 7 30.21 1023 10 16 N/A
10:53 am 10:53 Sunny 64 17.8 25 -3.9 23 23 N N/A 30.19 1022 10 16 N/A
11:53 am 11:53 Sunny 66 18.9 25 -3.9 21 21 ENE 3 6 30.16 1021 10 16 N/A
12:53 pm 12:53 Sunny 67 19.4 25 -3.9 20 20 SW 3 6 30.14 1021 10 16 N/A
1:53 pm 13:53 Sunny 69 20.6 25 -3.9 19 19 N N/A 30.13 1020 10 16 N/A
2:53 pm 14:53 Sunny 69 20.6 25 -3.9 19 19 N N/A 30.12 1020 10 16 N/A
3:53 pm 15:53 Sunny 69 20.6 25 -3.9 19 19 SE 3 6 30.12 1020 10 16 N/A
4:53 pm 16:53 Clear 65 18.3 24 -4.4 21 21 N N/A 30.13 1020 10 16 N/A
5:53 pm 17:53 Clear 62 16.7 27 -2.8 26 26 W 5 7 30.14 1021 10 16 N/A
6:53 pm 18:53 Clear 58 14.4 29 -1.7 33 33 W 5 7 30.16 1021 10 16 N/A
7:53 pm 19:53 Clear 56 13.3 28 -2.2 34 34 WNW 3 6 30.16 1022 10 16 N/A
8:53 pm 20:53 Clear 53 11.7 28 -2.2 38 38 WNW 8 13 30.17 1022 10 16 N/A
9:53 pm 21:53 Clear 52 11.1 26 -3.3 37 37 N N/A 30.16 1021 10 16 N/A
10:53 pm 22:53 Clear 51 10.6 26 -3.3 38 38 N N/A 30.15 1021 10 16 N/A
11:53 pm 23:53 Clear 53 11.7 25 -3.9 34 34 NNW 3 6 30.14 1021 10 16 N/A

Powered by AerisWeather